OKEAN-0
1 25860U 99039A 12193.96644578 .00000408 00000-0 69175-4 0 06942
2 25860 097.9374 156.1053 0001366 106.2691 253.8668 14.74237389698227
NOAA-16
1 26536U 00055A 12193.75450587 .00000203 00000-0 13407-3 0 08171
2 26536 099.0920 236.2559 0010715 019.5940 340.5646 14.12757593608508
NOAA-17
1 27453U 02032A 12193.88854791 .00000309 00000-0 15095-3 0 07683
2 27453 098.3350 219.6769 0012848 084.8481 275.4154 14.24457241522277
NOAA-18
1 28654U 05018A 12193.87282602 .00000439 00000-0 26600-3 0 02491
2 28654 099.0471 152.1675 0015272 085.5023 274.7915 14.11672742368045
NOAA-19
1 33591U 09005A 12193.88618826 .00000467 00000-0 28233-3 0 04395
2 33591 098.8633 133.3692 0013493 314.7744 045.2347 14.11360431176493
HUBBLE
1 20580U 90037B 12193.03576048 .00001824 00000-0 12133-3 0 329
2 20580 028.4712 347.4631 0003127 316.5196 043.5274 15.02610750 18329
ISS
1 25544U 98067A 12194.96999841 .00012478 00000-0 18175-3 0 9157
2 25544 051.6411 353.5041 0007507 147.7076 353.7040 15.56107188782025
CO-58
1 28895U 05043F 12193.67573780 .00000698 00000-0 15201-3 0 2238
2 28895 097.9094 058.8676 0019056 076.8021 283.5314 14.60671249357233
FALCON
1 30776U 07006E 12194.81749567 .00004189 00000-0 27125-3 0 3884
2 30776 035.4280 120.2726 0001848 269.0052 091.0465 15.07726910294123
MAST
1 31126U 07012K 12193.92499888 .00000669 00000-0 15912-3 0 05073
2 31126 097.8737 203.5776 0094643 034.1038 326.6194 14.54193664277865
CAPE1
1 31130U 07012P 12194.53258688 .00001010 00000-0 23879-3 0 5147
2 31130 097.8821 200.5164 0102358 045.4934 315.4566 14.52984161277457
COMPASS
1 32787U 08021E 12193.61153704 .00002684 00000-0 32740-3 0 03523
2 32787 097.7977 254.4062 0014644 345.2751 014.8044 14.84102521227431
AAUSAT2
1 32788U 08021F 12194.65432432 .00002267 00000-0 27534-3 0 3440
2 32788 097.7991 255.8215 0014451 342.8555 017.2184 14.84433833227619
DO-64
1 32789U 08021G 12193.86767579 .00004190 00000-0 48494-3 0 3597
2 32789 097.8098 257.1677 0013552 341.7221 018.3572 14.85986722227541
CO-66
1 32791U 08021J 12194.62262455 .00002198 00000-0 27303-3 0 3433
2 32791 097.7977 255.1153 0015267 341.6312 018.4325 14.83505960227514
RS-30
1 32953U 08025A 12194.72408805 .00000010 00000-0 00000 0 0 9538
2 32953 082.5034 279.2598 0017535 250.3552 109.5642 12.43025469187730
TACSAT-3
1 35001U 09028A 12121.72616188 .15204951 73582-5 42606-3 0 00016
2 35001 040.4259 351.8840 0007146 275.2650 085.0693 16.45157000166990
PHARMSAT
1 35002U 09028B 12194.57296414 .00258078 31622-4 68313-3 0 9794
2 35002 040.4550 263.7272 0008508 072.3319 287.8418 15.93775573178360
METEOR-M
1 35865U 09049A 12194.90461606 -.00000011 00000-0 14723-4 0 5831
2 35865 098.6529 248.7464 0002454 000.7354 359.3826 14.21865627146253
RS-38
1 35869U 09049E 12194.85158932 .00000034 00000-0 35022-4 0 5901
2 35869 098.6481 248.6857 0004499 349.8050 010.3034 14.22078083146269
JUGNU
1 37839U 11058B 12193.40903270 .00000620 00000-0 19019-3 0 1843
2 37839 019.9611 211.4844 0019457 127.3951 232.8224 14.12065795 38674
SRMSAT
1 37841U 11058D 12193.28422884 .00000264 00000-0 00000-0 0 01862
2 37841 019.9709 217.6057 0011775 095.1371 265.0402 14.10148422038608
RAX-2
1 37853U 11061D 12194.73831935 .00002815 00000-0 23085-3 0 2283
2 37853 101.7113 246.5598 0246353 278.0641 079.2673 14.80186544 38176
AUBIESAT
1 37854U 11061E 12193.87541563 .00002763 00000-0 22390-3 0 02373
2 37854 101.7127 245.5848 0246779 279.6939 077.6466 14.80575355038048
HRBE
1 37855U 11061F 12193.82395602 .00002414 00000-0 19729-3 0 02386
2 37855 101.7114 245.4585 0247593 280.0760 077.2579 14.80422342038032
RS-39
1 38051U 11062C 12194.96502477 .00007962 00000-0 33017-3 0 5070
2 38051 051.6391 036.9706 0014831 126.6867 034.8031 15.24680811 25909
E-STAR
1 38079U 12006C 12194.60413678 .00046460 00000-0 11129-2 0 3437
2 38079 069.4946 257.5365 0738913 215.9259 138.9763 14.16375344 21181
GOLIAT
1 38085U 12006J 12194.61344988 .00046936 00000-0 11215-2 0 3144
2 38085 069.4922 257.8561 0743845 216.2678 138.5572 14.15373151 21178
HORYU-2
1 38340U 12025D 12193.87553771 .00001291 00000-0 22345-3 0 495
2 38340 098.1757 133.6607 0011806 250.7708 109.3020 14.70029689 8108
